HB9ZRH-10 Weather Reports


time (UTC)temp
F
wind
direction
speed
knots
gust
knots
rain 1hr
in
rain 24hr
in
rain mn
in
humidity
%
barometer
mb
20260506180356 70 0.0 0.0 0.00 0.00 0.00 45 1009.3
20260506175856 70 0.0 0.0 0.00 0.00 0.00 45 1009.2
20260506175356 70 0.0 0.0 0.00 0.00 0.00 46 1009.1
20260506174856 67 0.0 0.0 0.00 0.00 0.00 48 1009.1
20260506174356 67 0.0 0.0 0.00 0.00 0.00 47 1009.0
20260506173856 65 0.0 0.0 0.00 0.00 0.00 47 1008.9
20260506173356 65 0.0 0.0 0.00 0.00 0.00 47 1008.8
20260506172856 71 0.0 0.0 0.00 0.00 0.00 45 1008.7
20260506172356 69 0.0 0.0 0.00 0.00 0.00 46 1008.8
20260506171856 65 0.0 0.0 0.00 0.00 0.00 47 1008.8
20260506171356 69 0.0 0.0 0.00 0.00 0.00 46 1008.7
20260506170856 70 0.0 0.0 0.00 0.00 0.00 46 1008.5
20260506170356 69 0.0 0.0 0.00 0.00 0.00 46 1008.7
20260506165856 68 0.0 0.0 0.00 0.00 0.00 47 1008.6
20260506165356 68 0.0 0.0 0.00 0.00 0.00 47 1008.5
20260506164856 70 0.0 0.0 0.00 0.00 0.00 46 1008.6
20260506164356 72 0.0 0.0 0.00 0.00 0.00 45 1008.5
20260506163856 73 0.0 0.0 0.00 0.00 0.00 45 1008.5
20260506163356 71 0.0 0.0 0.00 0.00 0.00 46 1008.6
20260506162856 72 0.0 0.0 0.00 0.00 0.00 46 1008.7
20260506162356 71 0.0 0.0 0.00 0.00 0.00 46 1008.6
20260506161856 70 0.0 0.0 0.00 0.00 0.00 48 1008.6
20260506161356 67 0.0 0.0 0.00 0.00 0.00 49 1008.7
20260506160856 67 0.0 0.0 0.00 0.00 0.00 48 1008.5
20260506160356 63 0.0 0.0 0.00 0.00 0.00 51 1008.6
20260506155856 62 0.0 0.0 0.00 0.00 0.00 50 1008.6
20260506155356 62 0.0 0.0 0.00 0.00 0.00 50 1008.6
20260506154856 63 0.0 0.0 0.00 0.00 0.00 50 1008.7
20260506154356 66 0.0 0.0 0.00 0.00 0.00 49 1008.6
20260506153856 69 0.0 0.0 0.00 0.00 0.00 48 1008.6
20260506153356 65 0.0 0.0 0.00 0.00 0.00 49 1008.6
20260506152856 65 0.0 0.0 0.00 0.00 0.00 48 1008.6
20260506152356 69 0.0 0.0 0.00 0.00 0.00 48 1008.5
20260506151856 64 0.0 0.0 0.00 0.00 0.00 50 1008.6
20260506151356 66 0.0 0.0 0.00 0.00 0.00 48 1008.6
20260506150856 67 0.0 0.0 0.00 0.00 0.00 47 1008.7
20260506150356 68 0.0 0.0 0.00 0.00 0.00 47 1008.7
20260506145856 66 0.0 0.0 0.00 0.00 0.00 48 1008.8
20260506145356 71 0.0 0.0 0.00 0.00 0.00 47 1008.6
20260506144856 72 0.0 0.0 0.00 0.00 0.00 47 1008.7
20260506144356 72 0.0 0.0 0.00 0.00 0.00 47 1008.7
20260506143856 71 0.0 0.0 0.00 0.00 0.00 47 1008.6
20260506143356 68 0.0 0.0 0.00 0.00 0.00 48 1008.5
20260506142856 71 0.0 0.0 0.00 0.00 0.00 48 1008.5
20260506142356 70 0.0 0.0 0.00 0.00 0.00 49 1008.5
20260506141856 68 0.0 0.0 0.00 0.00 0.00 50 1008.5
20260506141356 63 0.0 0.0 0.00 0.00 0.00 52 1008.5
20260506140856 67 0.0 0.0 0.00 0.00 0.00 50 1008.4
20260506140356 60 0.0 0.0 0.00 0.00 0.00 54 1008.3
20260506135856 64 0.0 0.0 0.00 0.00 0.00 50 1008.3
20260506135356 67 0.0 0.0 0.00 0.00 0.00 50 1008.3
20260506134856 64 0.0 0.0 0.00 0.00 0.00 52 1008.3
20260506134356 64 0.0 0.0 0.00 0.00 0.00 51 1008.2
20260506133856 69 0.0 0.0 0.00 0.00 0.00 49 1008.1
20260506133356 68 0.0 0.0 0.00 0.00 0.00 51 1008.2
20260506132856 66 0.0 0.0 0.00 0.00 0.00 50 1008.3
20260506132356 67 0.0 0.0 0.00 0.00 0.00 52 1008.3
20260506131856 68 0.0 0.0 0.00 0.00 0.00 53 1008.3
20260506131356 61 0.0 0.0 0.00 0.00 0.00 54 1008.3
20260506130856 60 0.0 0.0 0.00 0.00 0.00 54 1008.3
20260506130356 59 0.0 0.0 0.00 0.00 0.00 55 1008.2
20260506125856 56 0.0 0.0 0.00 0.00 0.00 57 1008.0
20260506125356 59 0.0 0.0 0.00 0.00 0.00 55 1007.9
20260506124856 63 0.0 0.0 0.00 0.00 0.00 51 1007.8
20260506124356 61 0.0 0.0 0.00 0.00 0.00 54 1007.7
20260506123856 62 0.0 0.0 0.00 0.00 0.00 55 1007.5
20260506123356 59 0.0 0.0 0.00 0.00 0.00 57 1007.5
20260506122856 60 0.0 0.0 0.00 0.00 0.00 56 1007.1
20260506122356 56 0.0 0.0 0.00 0.00 0.00 56 1007.3
20260506121856 55 0.0 0.0 0.00 0.00 0.00 56 1007.1
20260506121356 57 0.0 0.0 0.00 0.00 0.00 56 1007.0
20260506120856 61 0.0 0.0 0.00 0.00 0.00 54 1006.8
20260506120356 60 0.0 0.0 0.00 0.00 0.00 55 1007.1
20260506115856 58 0.0 0.0 0.00 0.00 0.00 55 1006.9
20260506115356 59 0.0 0.0 0.00 0.00 0.00 54 1006.9
20260506114856 59 0.0 0.0 0.00 0.00 0.00 54 1006.8
20260506114356 61 0.0 0.0 0.00 0.00 0.00 53 1006.9
20260506113856 60 0.0 0.0 0.00 0.00 0.00 53 1006.7
20260506113356 61 0.0 0.0 0.00 0.00 0.00 53 1006.8
20260506112856 61 0.0 0.0 0.00 0.00 0.00 52 1006.7
20260506112356 65 0.0 0.0 0.00 0.00 0.00 51 1006.6
20260506111856 63 0.0 0.0 0.00 0.00 0.00 52 1006.7
20260506111356 59 0.0 0.0 0.00 0.00 0.00 54 1006.8
20260506110856 59 0.0 0.0 0.00 0.00 0.00 53 1006.7
20260506110356 61 0.0 0.0 0.00 0.00 0.00 52 1006.7
20260506105856 61 0.0 0.0 0.00 0.00 0.00 52 1006.8
20260506105356 63 0.0 0.0 0.00 0.00 0.00 50 1006.8
20260506104856 64 0.0 0.0 0.00 0.00 0.00 50 1006.7
20260506104356 65 0.0 0.0 0.00 0.00 0.00 50 1006.7
20260506103856 66 0.0 0.0 0.00 0.00 0.00 50 1006.7
20260506103356 64 0.0 0.0 0.00 0.00 0.00 50 1006.8
20260506102856 62 0.0 0.0 0.00 0.00 0.00 51 1006.8
20260506102356 62 0.0 0.0 0.00 0.00 0.00 51 1006.8
20260506101856 62 0.0 0.0 0.00 0.00 0.00 51 1006.8
20260506101356 63 0.0 0.0 0.00 0.00 0.00 50 1006.7
20260506100856 63 0.0 0.0 0.00 0.00 0.00 50 1006.6
20260506100356 63 0.0 0.0 0.00 0.00 0.00 49 1006.7
20260506095856 63 0.0 0.0 0.00 0.00 0.00 50 1006.7
20260506095356 64 0.0 0.0 0.00 0.00 0.00 49 1006.7
20260506094856 66 0.0 0.0 0.00 0.00 0.00 48 1006.9
20260506094356 67 0.0 0.0 0.00 0.00 0.00 48 1006.9
20260506093856 66 0.0 0.0 0.00 0.00 0.00 48 1006.8
20260506093356 65 0.0 0.0 0.00 0.00 0.00 48 1006.9
20260506092856 65 0.0 0.0 0.00 0.00 0.00 48 1006.9
20260506092356 64 0.0 0.0 0.00 0.00 0.00 49 1006.8
20260506091856 65 0.0 0.0 0.00 0.00 0.00 47 1006.7
20260506091356 67 0.0 0.0 0.00 0.00 0.00 47 1006.7
20260506090856 69 0.0 0.0 0.00 0.00 0.00 46 1006.6
20260506090356 68 0.0 0.0 0.00 0.00 0.00 47 1006.6
20260506085856 65 0.0 0.0 0.00 0.00 0.00 48 1006.5
20260506085356 64 0.0 0.0 0.00 0.00 0.00 47 1006.5
20260506084856 67 0.0 0.0 0.00 0.00 0.00 46 1006.5
20260506084356 69 0.0 0.0 0.00 0.00 0.00 45 1006.7
20260506083856 70 0.0 0.0 0.00 0.00 0.00 45 1006.6
20260506083356 70 0.0 0.0 0.00 0.00 0.00 46 1006.7
20260506082856 69 0.0 0.0 0.00 0.00 0.00 46 1006.6
20260506082356 69 0.0 0.0 0.00 0.00 0.00 46 1006.6
20260506081856 70 0.0 0.0 0.00 0.00 0.00 46 1006.5
20260506081356 70 0.0 0.0 0.00 0.00 0.00 46 1006.5
20260506080856 69 0.0 0.0 0.00 0.00 0.00 46 1006.6
20260506080356 69 0.0 0.0 0.00 0.00 0.00 46 1006.5
20260506073356 69 0.0 0.0 0.00 0.00 0.00 46 1006.6
20260506072856 70 0.0 0.0 0.00 0.00 0.00 46 1006.6
20260506072356 70 0.0 0.0 0.00 0.00 0.00 46 1006.6
20260506071856 70 0.0 0.0 0.00 0.00 0.00 46 1006.6
20260506071356 69 0.0 0.0 0.00 0.00 0.00 47 1006.6
20260506070856 70 0.0 0.0 0.00 0.00 0.00 47 1006.6
20260506070356 70 0.0 0.0 0.00 0.00 0.00 47 1006.6
20260506062356 62 0.0 0.0 0.00 0.00 0.00 52 1006.6
20260506061856 63 0.0 0.0 0.00 0.00 0.00 52 1006.6
20260506061356 61 0.0 0.0 0.00 0.00 0.00 53 1006.7
20260506060856 59 0.0 0.0 0.00 0.00 0.00 54 1006.6
20260506060356 58 0.0 0.0 0.00 0.00 0.00 54 1006.6
20260506051356 54 0.0 0.0 0.00 0.00 0.00 54 1006.8
20260506050856 54 0.0 0.0 0.00 0.00 0.00 54 1006.9
20260506050356 55 0.0 0.0 0.00 0.00 0.00 54 1006.8
20260506044856 55 0.0 0.0 0.00 0.00 0.00 54 1006.8
20260506044356 56 0.0 0.0 0.00 0.00 0.00 53 1006.8
20260506043856 56 0.0 0.0 0.00 0.00 0.00 53 1006.7
20260506043356 57 0.0 0.0 0.00 0.00 0.00 53 1006.8
20260506042856 56 0.0 0.0 0.00 0.00 0.00 53 1006.8
20260506042356 57 0.0 0.0 0.00 0.00 0.00 52 1006.8
20260506041856 57 0.0 0.0 0.00 0.00 0.00 52 1006.8
20260506041356 57 0.0 0.0 0.00 0.00 0.00 52 1006.8
20260506040856 58 0.0 0.0 0.00 0.00 0.00 51 1006.9
20260506040356 58 0.0 0.0 0.00 0.00 0.00 52 1006.9
20260506035856 57 0.0 0.0 0.00 0.00 0.00 52 1007.0
20260506035356 58 0.0 0.0 0.00 0.00 0.00 51 1007.1
20260506034856 60 0.0 0.0 0.00 0.00 0.00 50 1007.2
20260506034356 61 0.0 0.0 0.00 0.00 0.00 49 1007.3
20260506033856 64 0.0 0.0 0.00 0.00 0.00 48 1007.2
20260506033356 67 0.0 0.0 0.00 0.00 0.00 48 1007.1
20260506032856 65 0.0 0.0 0.00 0.00 0.00 48 1007.3
20260506032356 61 0.0 0.0 0.00 0.00 0.00 51 1007.4
20260506031856 57 0.0 0.0 0.00 0.00 0.00 52 1007.5
20260506031356 56 0.0 0.0 0.00 0.00 0.00 52 1007.6
20260506030856 55 0.0 0.0 0.00 0.00 0.00 52 1007.6
20260506030356 56 0.0 0.0 0.00 0.00 0.00 52 1007.6
20260506025856 56 0.0 0.0 0.00 0.00 0.00 51 1007.7
20260506025356 57 0.0 0.0 0.00 0.00 0.00 51 1007.7
20260506024856 57 0.0 0.0 0.00 0.00 0.00 50 1007.7
20260506024356 58 0.0 0.0 0.00 0.00 0.00 50 1007.7
20260506023856 62 0.0 0.0 0.00 0.00 0.00 48 1007.7
20260506023356 62 0.0 0.0 0.00 0.00 0.00 48 1007.8
20260506022856 64 0.0 0.0 0.00 0.00 0.00 48 1007.8
20260506022356 60 0.0 0.0 0.00 0.00 0.00 49 1007.9
20260506021856 58 0.0 0.0 0.00 0.00 0.00 50 1008.0
20260506021356 57 0.0 0.0 0.00 0.00 0.00 49 1008.0
20260506021049 56 0.0 0.0 0.00 0.00 0.00 49 1008.2
20260506015856 56 0.0 0.0 0.00 0.00 0.00 49 1008.2
20260506015356 58 0.0 0.0 0.00 0.00 0.00 47 1008.2
20260506014856 60 0.0 0.0 0.00 0.00 0.00 47 1008.2
20260506014356 63 0.0 0.0 0.00 0.00 0.00 45 1008.2
20260506013856 65 0.0 0.0 0.00 0.00 0.00 44 1008.2
20260506013356 63 0.0 0.0 0.00 0.00 0.00 45 1008.3
20260506012856 62 0.0 0.0 0.00 0.00 0.00 45 1008.3
20260506012356 66 0.0 0.0 0.00 0.00 0.00 43 1008.3
20260506011856 70 0.0 0.0 0.00 0.00 0.00 41 1008.3
20260506011356 75 0.0 0.0 0.00 0.00 0.00 39 1008.2
20260506010856 76 0.0 0.0 0.00 0.00 0.00 39 1008.2
20260506010356 77 0.0 0.0 0.00 0.00 0.00 38 1008.2
20260506005856 77 0.0 0.0 0.00 0.00 0.00 39 1008.2
20260506005356 77 0.0 0.0 0.00 0.00 0.00 39 1008.3
20260506004856 77 0.0 0.0 0.00 0.00 0.00 39 1008.4
20260506004356 77 0.0 0.0 0.00 0.00 0.00 39 1008.4
20260506003856 77 0.0 0.0 0.00 0.00 0.00 39 1008.4
20260506003356 76 0.0 0.0 0.00 0.00 0.00 39 1008.5
20260506002856 76 0.0 0.0 0.00 0.00 0.00 39 1008.6
20260506002356 76 0.0 0.0 0.00 0.00 0.00 39 1008.6
20260506001856 76 0.0 0.0 0.00 0.00 0.00 39 1008.7
20260506001356 76 0.0 0.0 0.00 0.00 0.00 39 1008.8
20260506000856 75 0.0 0.0 0.00 0.00 0.00 39 1008.9
20260506000356 75 0.0 0.0 0.00 0.00 0.00 39 1009.0
20260505235856 77 0.0 0.0 0.00 0.00 0.00 38 1008.9
20260505235356 77 0.0 0.0 0.00 0.00 0.00 38 1008.9
20260505234856 77 0.0 0.0 0.00 0.00 0.00 39 1008.9
20260505234356 77 0.0 0.0 0.00 0.00 0.00 39 1008.9
20260505233856 77 0.0 0.0 0.00 0.00 0.00 39 1008.9
20260505233356 77 0.0 0.0 0.00 0.00 0.00 39 1008.9
20260505232856 75 0.0 0.0 0.00 0.00 0.00 40 1009.0
20260505232356 72 0.0 0.0 0.00 0.00 0.00 40 1009.1
20260505231856 73 0.0 0.0 0.00 0.00 0.00 40 1009.2
20260505231356 76 0.0 0.0 0.00 0.00 0.00 39 1009.1
20260505230856 76 0.0 0.0 0.00 0.00 0.00 39 1009.2
20260505230356 76 0.0 0.0 0.00 0.00 0.00 39 1009.1
20260505225856 76 0.0 0.0 0.00 0.00 0.00 39 1009.2
20260505225356 76 0.0 0.0 0.00 0.00 0.00 39 1009.1
20260505224519 75 0.0 0.0 0.00 0.00 0.00 39 1009.2
20260505224019 75 0.0 0.0 0.00 0.00 0.00 40 1009.1
20260505223519 75 0.0 0.0 0.00 0.00 0.00 40 1009.2
20260505223019 74 0.0 0.0 0.00 0.00 0.00 40 1009.2
20260505222519 74 0.0 0.0 0.00 0.00 0.00 40 1009.1
20260505222019 75 0.0 0.0 0.00 0.00 0.00 40 1009.2
20260505221519 77 0.0 0.0 0.00 0.00 0.00 39 1009.3
20260505221019 78 0.0 0.0 0.00 0.00 0.00 39 1009.1
20260505220519 77 0.0 0.0 0.00 0.00 0.00 39 1009.2
20260505220019 76 0.0 0.0 0.00 0.00 0.00 39 1009.2
20260505215519 77 0.0 0.0 0.00 0.00 0.00 39 1009.4
20260505215019 77 0.0 0.0 0.00 0.00 0.00 40 1009.4
20260505214519 76 0.0 0.0 0.00 0.00 0.00 40 1009.6
20260505214019 76 0.0 0.0 0.00 0.00 0.00 40 1009.7
20260505213519 76 0.0 0.0 0.00 0.00 0.00 40 1009.8
20260505213019 76 0.0 0.0 0.00 0.00 0.00 40 1009.7
20260505212519 76 0.0 0.0 0.00 0.00 0.00 40 1009.8
20260505212019 76 0.0 0.0 0.00 0.00 0.00 40 1009.8
20260505211519 76 0.0 0.0 0.00 0.00 0.00 40 1009.9
20260505211019 77 0.0 0.0 0.00 0.00 0.00 40 1009.9
20260505210519 76 0.0 0.0 0.00 0.00 0.00 40 1009.9
20260505210019 76 0.0 0.0 0.00 0.00 0.00 40 1009.8
20260505205519 76 0.0 0.0 0.00 0.00 0.00 40 1009.9
20260505205019 77 0.0 0.0 0.00 0.00 0.00 39 1009.8
20260505204519 77 0.0 0.0 0.00 0.00 0.00 40 1009.8
20260505204019 77 0.0 0.0 0.00 0.00 0.00 40 1009.9
20260505203519 77 0.0 0.0 0.00 0.00 0.00 40 1009.8
20260505203019 76 0.0 0.0 0.00 0.00 0.00 40 1009.8
20260505202519 77 0.0 0.0 0.00 0.00 0.00 40 1009.8
20260505202019 77 0.0 0.0 0.00 0.00 0.00 40 1009.8
20260505201519 77 0.0 0.0 0.00 0.00 0.00 40 1009.8
20260505201019 78 0.0 0.0 0.00 0.00 0.00 40 1009.8
20260505200519 77 0.0 0.0 0.00 0.00 0.00 40 1009.7
20260505200019 76 0.0 0.0 0.00 0.00 0.00 40 1009.6
20260505195519 75 0.0 0.0 0.00 0.00 0.00 41 1009.5
20260505195019 72 0.0 0.0 0.00 0.00 0.00 41 1009.3
20260505194519 78 0.0 0.0 0.00 0.00 0.00 40 1009.3
20260505194019 77 0.0 0.0 0.00 0.00 0.00 40 1009.2
20260505193519 77 0.0 0.0 0.00 0.00 0.00 41 1009.2
20260505193019 76 0.0 0.0 0.00 0.00 0.00 41 1009.2
20260505192519 76 0.0 0.0 0.00 0.00 0.00 41 1009.2
20260505192019 75 0.0 0.0 0.00 0.00 0.00 42 1009.2
20260505191519 75 0.0 0.0 0.00 0.00 0.00 42 1009.2
20260505191019 75 0.0 0.0 0.00 0.00 0.00 42 1009.1
20260505190519 75 0.0 0.0 0.00 0.00 0.00 41 1009.1
20260505190019 75 0.0 0.0 0.00 0.00 0.00 41 1009.0
20260505185519 76 0.0 0.0 0.00 0.00 0.00 41 1009.0
20260505185019 76 0.0 0.0 0.00 0.00 0.00 41 1008.9
20260505184519 75 0.0 0.0 0.00 0.00 0.00 41 1008.9
20260505184019 76 0.0 0.0 0.00 0.00 0.00 41 1008.8
20260505183519 77 0.0 0.0 0.00 0.00 0.00 41 1008.9
20260505183019 78 0.0 0.0 0.00 0.00 0.00 41 1008.9
20260505182519 78 0.0 0.0 0.00 0.00 0.00 40 1009.0
20260505182019 79 0.0 0.0 0.00 0.00 0.00 40 1009.0
20260505181519 78 0.0 0.0 0.00 0.00 0.00 41 1009.0
20260505181019 79 0.0 0.0 0.00 0.00 0.00 41 1009.1